KE0MVE Weather Reports


Display with metric or nautical units.
time (UTC)temp
F
wind
direction
speed
MPH
gust
MPH
rain 1hr
in
rain 24hr
in
rain mn
in
humidity
%
barometer
mb
20260906183035 81 105 3.0 9.0 0.00 0.00 0.00 67 1016.4
20260906181535 80 199 1.0 6.0 0.00 0.00 0.00 69 1016.7
20260906180031 80 113 1.0 8.0 0.00 0.00 0.00 68 1016.5
20260906174530 81 75 2.0 7.0 0.00 0.00 0.00 67 1016.5
20260906171530 80 103 3.0 8.0 0.00 0.00 0.00 69 1016.9
20260906170053 80 124 2.0 8.0 0.00 0.00 0.00 71 1017.0
20260906164523 79 77 2.0 7.0 0.00 0.00 0.00 72 1017.0
20260906163023 79 12 2.0 6.0 0.00 0.00 0.00 73 1017.2
20260906161521 78 113 0.0 5.0 0.00 0.00 0.00 73 1017.1
20260906160021 78 84 1.0 8.0 0.00 0.00 0.00 74 1017.3
20260906154522 78 113 1.0 6.0 0.00 0.00 0.00 75 1017.4
20260906153023 78 105 1.0 7.0 0.00 0.00 0.00 75 1017.5
20260906151519 77 84 1.0 9.0 0.00 0.00 0.00 77 1017.7
20260906150014 76 105 2.0 8.0 0.00 0.00 0.00 79 1017.5
20260906144510 76 108 1.0 6.0 0.00 0.00 0.00 80 1017.4
20260906143010 75 94 1.0 6.0 0.00 0.00 0.00 82 1017.3
20260906141503 73 214 1.0 6.0 0.00 0.00 0.00 85 1017.5
20260906140059 0 0.0 0.0 0.00 0.00 0.00 1017.6
20260906134603 0 0.0 0.0 0.00 0.00 0.00 1017.5
20260906133054 0 0.0 0.0 0.00 0.00 0.00 1017.4
20260906131549 0 0.0 0.0 0.00 0.00 0.00 1017.2
20260906130047 0 0.0 0.0 0.00 0.00 0.00 1017.4
20260906124543 0 0.0 0.0 0.00 0.00 0.00 1017.2
20260906123104 0 0.0 0.0 0.00 0.00 0.00 1017.3
20260906121528 0 0.0 0.0 0.00 0.00 0.00 1017.2
20260906120023 0 0.0 0.0 0.00 0.00 0.00 1017.1
20260906114520 0 0.0 0.0 0.00 0.00 0.00 1016.9
20260906113016 0 0.0 0.0 0.00 0.00 0.00 1016.8
20260906111522 0 0.0 0.0 0.00 0.00 0.00 1016.8
20260906110006 0 0.0 0.0 0.00 0.00 0.00 1016.7
20260906104501 0 0.0 0.0 0.00 0.00 0.00 1016.5
20260906103057 0 0.0 0.0 0.00 0.00 0.00 1016.5
20260906101553 0 0.0 0.0 0.00 0.00 0.00 1016.5
20260906100048 66 99 0.0 0.0 0.00 0.00 0.00 94 1016.5
20260906094556 67 95 0.0 0.0 0.00 0.00 0.00 94 1016.1
20260906093048 67 95 0.0 0.0 0.00 0.00 0.00 94 1015.9
20260906091600 67 95 0.0 1.0 0.00 0.00 0.00 93 1015.7
20260906090042 68 95 0.0 0.0 0.00 0.00 0.00 93 1015.6
20260906084542 68 95 0.0 1.0 0.00 0.00 0.00 93 1015.7
20260906083042 68 94 0.0 1.0 0.00 0.00 0.00 93 1015.6
20260906081544 68 83 0.0 1.0 0.00 0.00 0.00 93 1015.7
20260906080041 68 105 0.0 0.0 0.00 0.00 0.00 92 1015.7
20260906074546 68 106 0.0 0.0 0.00 0.00 0.00 92 1015.7
20260906073040 69 120 0.0 0.0 0.00 0.00 0.00 91 1015.7
20260906071535 69 120 0.0 0.0 0.00 0.00 0.00 91 1015.9
20260906070035 69 120 0.0 0.0 0.00 0.00 0.00 91 1016.1
20260906064536 69 120 0.0 0.0 0.00 0.00 0.00 91 1016.2
20260906063034 68 120 0.0 0.0 0.00 0.00 0.00 92 1016.2
20260906061531 68 120 0.0 0.0 0.00 0.00 0.00 92 1016.0
20260906060029 68 120 0.0 0.0 0.00 0.00 0.00 91 1016.2
20260906054538 68 120 0.0 0.0 0.00 0.00 0.00 89 1016.0
20260906053025 69 119 0.0 0.0 0.00 0.00 0.00 89 1016.1
20260906051526 69 120 0.0 0.0 0.00 0.00 0.00 88 1016.0
20260906050020 70 120 0.0 0.0 0.00 0.00 0.00 87 1016.1
20260906044520 71 120 0.0 0.0 0.00 0.00 0.00 87 1016.1
20260906043028 71 120 0.0 0.0 0.00 0.00 0.00 86 1016.3
20260906041518 72 120 0.0 0.0 0.00 0.00 0.00 84 1016.3
20260906040017 72 120 0.0 0.0 0.00 0.00 0.00 83 1016.2
20260906034517 73 120 0.0 0.0 0.00 0.00 0.00 82 1016.3
20260906033023 73 120 0.0 0.0 0.00 0.00 0.00 79 1016.4
20260906031517 74 120 0.0 0.0 0.00 0.00 0.00 79 1016.5
20260906030020 75 120 0.0 0.0 0.00 0.00 0.00 77 1016.5
20260906024514 75 129 0.0 0.0 0.00 0.00 0.00 76 1016.4
20260906023015 75 65 0.0 0.0 0.00 0.00 0.00 76 1016.4
20260906021512 75 101 0.0 0.0 0.00 0.00 0.00 76 1016.0
20260906020012 76 101 0.0 0.0 0.00 0.00 0.00 75 1015.5
20260906014513 76 127 0.0 0.0 0.00 0.00 0.00 75 1015.1
20260906013012 77 81 0.0 1.0 0.00 0.00 0.00 74 1014.6
20260906011511 77 113 0.0 2.0 0.00 0.00 0.00 73 1014.4
20260906010010 78 86 0.0 2.0 0.00 0.00 0.00 71 1014.1
20260906004509 79 114 0.0 2.0 0.00 0.00 0.00 68 1013.8
20260906003009 81 97 0.0 5.0 0.00 0.00 0.00 66 1013.6
20260906001516 82 100 0.0 2.0 0.00 0.00 0.00 64 1013.4
20260906000026 83 106 0.0 7.0 0.00 0.00 0.00 63 1013.4
20260905234508 83 91 1.0 6.0 0.00 0.00 0.00 62 1013.6
20260905233105 84 120 1.0 5.0 0.00 0.00 0.00 62 1013.6
20260905231507 84 48 1.0 6.0 0.00 0.00 0.00 62 1013.6
20260905230005 84 97 0.0 6.0 0.00 0.00 0.00 63 1013.4
20260905224505 84 131 0.0 6.0 0.00 0.00 0.00 62 1013.2
20260905223007 85 86 2.0 9.0 0.00 0.00 0.00 61 1013.2
20260905221502 85 63 2.0 10.0 0.00 0.00 0.00 60 1013.2
20260905220101 85 108 0.0 7.0 0.00 0.00 0.00 62 1013.6
20260905214602 85 88 2.0 6.0 0.00 0.00 0.00 60 1013.5
20260905213102 85 145 2.0 7.0 0.00 0.00 0.00 62 1013.5
20260905211559 85 117 2.0 6.0 0.00 0.00 0.00 62 1013.9
20260905210113 84 94 1.0 8.0 0.00 0.00 0.00 63 1014.1
20260905204601 84 68 3.0 9.0 0.00 0.00 0.00 62 1014.4
20260905203054 84 73 0.0 5.0 0.00 0.00 0.00 64 1014.7
20260905201551 83 92 0.0 4.0 0.00 0.00 0.00 64 1015.1
20260905200049 83 27 1.0 5.0 0.00 0.00 0.00 66 1015.2
20260905194546 82 352 1.0 4.0 0.00 0.00 0.00 67 1015.5
20260905193043 81 230 0.0 5.0 0.00 0.00 0.00 68 1015.7
20260905191540 80 76 1.0 4.0 0.00 0.00 0.00 70 1015.7
20260905190038 79 47 1.0 5.0 0.00 0.00 0.00 72 1015.7
20260905184554 79 80 1.0 4.0 0.00 0.00 0.00 73 1015.9